Change the Weather History Date:

Thursday, July 11, 2013

  Actual Average Record
Temperature  
Mean Temperature 69 °F -  
Max Temperature 76 °F 74 °F 91 °F (2011)
Min Temperature 62 °F 56 °F 46 °F (2002)
Cooling Degree Days 4    
Growing Degree Days 19 (Base 50)    
Moisture  
Dew Point 63 °F    
Average Humidity 81    
Maximum Humidity 100    
Minimum Humidity 50    
Precipitation  
Precipitation 0.01 in - - ()
Sea Level Pressure  
Sea Level Pressure 29.88 in    
Wind  
Wind Speed 8 mph (West)    
Max Wind Speed 14 mph    
Max Gust Speed 23 mph    
Visibility 10 miles    
Events Rain    
Averages and records for this station are not official NWS values.
T = Trace of Precipitation, MM = Missing Value Source: NWS Daily Summary

Daily Weather History Graph

Daily Weather History Graph

Search for Another Location

Airport or City:

Trip Planner

Search our weather history database for the weather conditions in past years. The results will help you decide how hot, cold, wet, or windy it might be!

Date:

Astronomy

Jul. 11, 2013 Rise Set
Actual Time 5:30 AM EDT 8:45 PM EDT
Civil Twilight 4:55 AM EDT 9:21 PM EDT
Nautical Twilight 4:09 AM EDT 10:06 PM EDT
Astronomical Twilight 3:12 AM EDT 11:02 PM EDT
Moon 8:55 AM EDT (7/11) 10:15 PM EDT (7/11)
Length of Visible Light 16h 25m
Length of Day
15h 15m
Waxing Crescent, 10% of the Moon is Illuminated
Jul 11
Waxing Crescent
Jul 15
First Quarter
Jul 22
Full
Jul 29
Last Quarter
Aug 6
New

Hourly Weather History & Observations

Time (EDT) Temp. Dew Point Humidity Pressure Visibility Wind Dir Wind Speed Gust Speed Precip Events Conditions
12:13 AM 73.4 °F 68.0 °F 83% 29.76 in 10.0 mi WSW 12.7 mph 23.0 mph N/A   Mostly Cloudy
12:40 AM 71.6 °F 68.0 °F 88% 29.77 in 9.0 mi WSW 13.8 mph 19.6 mph N/A Rain Rain
12:50 AM 71.6 °F 69.8 °F 94% 29.77 in 10.0 mi WSW 10.4 mph 19.6 mph N/A Rain Light Rain
12:51 AM 71.6 °F 69.8 °F 94% 29.77 in 10.0 mi WSW 9.2 mph 19.6 mph N/A   Mostly Cloudy
12:58 AM 71.1 °F 68.9 °F 93% 29.77 in 10.0 mi SW 8.1 mph - 0.01 in   Mostly Cloudy
1:03 AM 71.6 °F 69.8 °F 94% 29.77 in 10.0 mi WSW 5.8 mph - N/A   Mostly Cloudy
1:35 AM 69.8 °F 69.8 °F 100% 29.77 in 10.0 mi WSW 8.1 mph - N/A   Light Drizzle
1:47 AM 69.8 °F 68.0 °F 94% 29.78 in 10.0 mi WSW 9.2 mph - N/A   Scattered Clouds
1:58 AM 70.5 °F 68.5 °F 93% 29.78 in 10.0 mi West 5.8 mph - 0.00 in   Mostly Cloudy
2:00 AM 69.8 °F 68.0 °F 94% 29.78 in 10.0 mi West 9.2 mph - N/A   Light Drizzle
2:09 AM 69.8 °F 68.0 °F 94% 29.78 in 10.0 mi WSW 8.1 mph - N/A   Mostly Cloudy
2:19 AM 69.8 °F 68.0 °F 94% 29.78 in 10.0 mi WSW 6.9 mph - N/A   Light Drizzle
2:30 AM 69.8 °F 68.0 °F 94% 29.79 in 10.0 mi WSW 8.1 mph - N/A   Mostly Cloudy
2:37 AM 69.8 °F 68.0 °F 94% 29.79 in 10.0 mi West 9.2 mph - N/A   Light Drizzle
2:54 AM 69.8 °F 68.0 °F 94% 29.79 in 10.0 mi West 5.8 mph - N/A   Scattered Clouds
2:58 AM 69.6 °F 67.8 °F 94% 29.78 in 10.0 mi West 5.8 mph - 0.00 in   Scattered Clouds
3:58 AM 66.2 °F 62.6 °F 88% 29.78 in 10.0 mi West 6.9 mph - N/A   Clear
4:58 AM 64.2 °F 60.4 °F 87% 29.81 in 10.0 mi West 5.8 mph - N/A   Clear
5:58 AM 62.6 °F 59.9 °F 91% 29.84 in 10.0 mi West 5.8 mph - N/A   Clear
6:58 AM 64.4 °F 60.8 °F 88% 29.88 in 10.0 mi West 6.9 mph - N/A   Mostly Cloudy
7:08 AM 64.4 °F 60.8 °F 88% 29.88 in 10.0 mi West 5.8 mph - N/A   Mostly Cloudy
7:33 AM 64.4 °F 60.8 °F 88% 29.89 in 10.0 mi West 5.8 mph - N/A   Scattered Clouds
7:38 AM 64.4 °F 60.8 °F 88% 29.89 in 10.0 mi West 5.8 mph - N/A   Mostly Cloudy
7:58 AM 64.8 °F 60.1 °F 85% 29.89 in 10.0 mi West 6.9 mph - N/A   Mostly Cloudy
8:58 AM 65.8 °F 61.2 °F 85% 29.91 in 10.0 mi West 6.9 mph - N/A   Overcast
9:33 AM 66.2 °F 60.8 °F 83% 29.92 in 10.0 mi West 4.6 mph - N/A   Overcast
9:43 AM 68.0 °F 60.8 °F 78% 29.92 in 10.0 mi NNW 4.6 mph - N/A   Mostly Cloudy
9:48 AM 68.0 °F 60.8 °F 78% 29.92 in 10.0 mi Variable 4.6 mph - N/A   Mostly Cloudy
9:53 AM 66.2 °F 60.8 °F 83% 29.92 in 10.0 mi Variable 3.5 mph - N/A   Overcast
9:58 AM 68.0 °F 62.6 °F 83% 29.91 in 10.0 mi NW 4.6 mph - N/A   Mostly Cloudy
10:28 AM 68.0 °F 62.6 °F 83% 29.93 in 10.0 mi Variable 4.6 mph - N/A   Mostly Cloudy
10:58 AM 70.7 °F 61.3 °F 72% 29.94 in 10.0 mi Variable 5.8 mph - N/A   Mostly Cloudy
11:28 AM 71.6 °F 59.0 °F 64% 29.94 in 10.0 mi Variable 4.6 mph - N/A   Light Drizzle
11:34 AM 73.4 °F 60.8 °F 65% 29.93 in 10.0 mi NNE 10.4 mph 19.6 mph N/A   Partly Cloudy
11:58 AM 71.6 °F 60.1 °F 67% 29.94 in 10.0 mi NNE 4.6 mph - 0.00 in   Scattered Clouds
12:58 PM 72.7 °F 59.4 °F 63% 29.94 in 10.0 mi North 6.9 mph - N/A   Scattered Clouds
1:58 PM 73.9 °F 57.9 °F 57% 29.94 in 10.0 mi North 9.2 mph - N/A   Partly Cloudy
2:58 PM 75.6 °F 57.6 °F 53% 29.94 in 10.0 mi Variable 6.9 mph - N/A   Partly Cloudy
3:01 PM 75.2 °F 57.2 °F 53% 29.94 in 10.0 mi Variable 4.6 mph - N/A   Light Drizzle
3:11 PM 75.2 °F 57.2 °F 53% 29.95 in 10.0 mi North 8.1 mph - N/A   Partly Cloudy
3:58 PM 75.0 °F 57.0 °F 53% 29.94 in 10.0 mi NNE 10.4 mph - 0.00 in   Clear
4:58 PM 76.1 °F 56.5 °F 50% 29.95 in 10.0 mi Variable 5.8 mph - N/A   Clear
5:58 PM 74.8 °F 56.5 °F 53% 29.96 in 10.0 mi North 5.8 mph - N/A   Partly Cloudy
6:58 PM 72.0 °F 57.9 °F 61% 29.97 in 10.0 mi North 4.6 mph - N/A   Clear
7:58 PM 69.6 °F 61.7 °F 76% 29.99 in 10.0 mi West 5.8 mph - N/A   Clear
8:58 PM 67.3 °F 61.9 °F 83% 30.00 in 10.0 mi West 4.6 mph - N/A   Partly Cloudy
9:58 PM 63.9 °F 61.7 °F 93% 30.03 in 10.0 mi SW 3.5 mph - N/A   Partly Cloudy
10:58 PM 64.6 °F 62.2 °F 92% 30.03 in 10.0 mi SW 2.3 mph - N/A   Mostly Cloudy
11:58 PM 62.2 °F 61.0 °F 96% 30.04 in 10.0 mi NNW 2.3 mph - N/A   Clear